This demonstration page uses our WeatherBlox Daily Observations layout. Learn more.

38.89511, -77.03637

Hourly Observations for April 15, 2017

Temp ( °F °C ) Dew Point ( °F °C ) Humidity (%) Winds ( mph kmh ) Pressure ( in mb ) Visibility ( mi km ) Precip ( " mm )
12:52 am 00:52 Mostly Clear 56 13.3 45 7.2 67 67 SSE 7 11 30.36 1028 10 16.09344 0 0
1:52 am 01:52 Mostly Cloudy 55 12.8 46 7.8 72 72 SE 6 9 30.36 1028 10 16.09344 0 0
2:52 am 02:52 Cloudy 56 13.3 47 8.3 72 72 SSE 3 6 30.36 1028 10 16.09344 0 0
3:52 am 03:52 Cloudy 56 13.3 47 8.3 72 72 S 6 9 30.36 1028 10 16.09344 0 0
4:52 am 04:52 Cloudy 56 13.3 47 8.3 72 72 S 8 13 30.33 1027 10 16.09344 0 0
5:52 am 05:52 Cloudy 56 13.3 48 8.9 75 75 SE 3 6 30.33 1027 10 16.09344 0 0
6:52 am 06:52 Cloudy 56 13.3 47 8.3 72 72 SE 7 11 30.33 1027 10 16.09344 0 0
7:19 am 07:19 Cloudy 57 13.9 47 8.3 69 69 SSE 5 7 30.36 1028 10 16.09344 0 0
7:52 am 07:52 Cloudy 57 13.9 47 8.3 69 69 N 3 6 30.33 1027 10 16.09344 0 0
8:52 am 08:52 Cloudy 58 14.4 46 7.8 65 65 SSE 5 7 30.33 1027 10 16.09344 0 0
9:52 am 09:52 Cloudy 59 15 47 8.3 64 64 S 6 9 30.33 1027 10 16.09344 0 0
10:52 am 10:52 Cloudy 61 16.1 48 8.9 63 63 S 5 7 30.33 1027 10 16.09344 0 0
11:52 am 11:52 Cloudy 63 17.2 50 10 63 63 S 7 11 30.3 1026 10 16.09344 0 0
12:52 pm 12:52 Mostly Cloudy 67 19.4 54 12.2 63 63 S 7 11 30.24 1024 10 16.09344 0 0
1:52 pm 13:52 Mostly Cloudy 70 21.1 57 13.9 64 64 SSE 9 15 30.21 1023 10 16.09344 0 0
2:52 pm 14:52 Cloudy 73 22.8 57 13.9 57 57 SSE 8 13 30.18 1022 10 16.09344 0 0
3:52 pm 15:52 Cloudy 74 23.3 57 13.9 56 56 SSE 8 13 30.15 1021 10 16.09344 0 0
4:36 pm 16:36 Cloudy 74 23.3 57 13.9 56 56 S 9 15 30.15 1021 10 16.09344 0 0
4:52 pm 16:52 Cloudy 74 23.3 58 14.4 57 57 S 8 13 30.15 1021 10 16.09344 0 0
5:52 pm 17:52 Cloudy 76 24.4 58 14.4 54 54 S 8 13 30.12 1020 10 16.09344 0 0
6:52 pm 18:52 Cloudy 75 23.9 59 15 58 58 S 6 9 30.12 1020 10 16.09344 0 0
7:52 pm 19:52 Cloudy 74 23.3 57 13.9 56 56 S 3 6 30.12 1020 10 16.09344 0 0
8:52 pm 20:52 Cloudy 72 22.2 58 14.4 61 61 Calm 30.12 1020 10 16.09344 0 0
9:20 pm 21:20 Cloudy 72 22 61 16 69 69 NE 5 7 30.12 1020 10 16.09344 0 0
9:52 pm 21:52 Cloudy 71 21.7 60 15.6 68 68 N 3 6 30.12 1020 10 16.09344 0 0
10:26 pm 22:26 Cloudy 70 21.1 61 16.1 73 73 N 10 17 30.15 1021 10 16.09344 0 0
10:52 pm 22:52 Cloudy 71 21.7 61 16.1 71 71 ENE 3 6 30.12 1020 10 16.09344 0 0
11:52 pm 23:52 Mostly Cloudy 68 20 62 16.7 81 81 S 7 11 30.09 1019 10 16.09344 0 0

Powered by AerisWeather